Skip Page Navigation
NASA JPL Caltech
NASA Logo - Jet Propulsion Laboratory + View the NASA Portal
+ Center for Near-Earth Object Studies
JPL Home Earth Solar System Stars & Galaxies Technology
JPL Solar System Dynamics
BODIES ORBITS EPHEMERIDES TOOLS PHYSICAL DATA DISCOVERY FAQ SITE MAP
IMPORTANT: The SSD Announcement email list is now available. Major changes are coming in the near future, including possible hostname and/or URL changes. To be notified of such changes, subscribe to this email list.

Please visit this page for more details.


JPL Small-Body Database Browser
Search: [ help ]  
295727 (2008 UF60)
Classification: Main-belt Asteroid          SPK-ID: 2295727
Ephemeris | Orbit Diagram | Orbital Elements | Mission Design | Physical Parameters | Discovery Circumstances ]

[ show orbit diagram ]
Orbital Elements at Epoch 2458600.5 (2019-Apr-27.0) TDB
Reference: JPL 10 (heliocentric ecliptic J2000)
 Element Value Uncertainty (1-sigma)   Units 
e .1317869136197607 6.0179e-08  
a 2.163231604086439 1.8019e-08 au
q 1.878145987539163 1.3659e-07 au
i 4.235575287080469 7.5697e-06 deg
node 356.2434324935973 6.6809e-05 deg
peri 17.35008846384194 7.3114e-05 deg
M 128.0339530729487 3.2845e-05 deg
tp 2458187.190288924821
(2018-Mar-09.69028892)
0.00010267 TDB
period 1162.12529892199
3.18
1.452e-05
3.975e-08
d
yr
n .3097772678505002 3.8704e-09 deg/d
Q 2.448317220633715 2.0393e-08 au
  Orbit Determination Parameters
   # obs. used (total)      193  
   data-arc span      5898 days (16.15 yr)  
   first obs. used      2002-12-31  
   last obs. used      2019-02-23  
   planetary ephem.      DE431  
   SB-pert. ephem.      SB431-N16  
   condition code      0  
   norm. resid. RMS      .53287  
   source      ORB  
   producer      Otto Matic  
   solution date      2019-Jul-14 11:20:34  

Additional Information
 Earth MOID = .878001 au 
 Jupiter MOID = 3.01516 au 
 T_jup = 3.680 
[ show covariance matrix ]

Ephemeris | Orbit Diagram | Orbital Elements | Mission Design | Physical Parameters | Discovery Circumstances ]

Physical Parameter Table
Parameter Symbol Value Units Sigma Reference Notes
absolute magnitude H 17.6   n/a MPO260565  

295727 (2008 UF60)          Discovered 2008-Oct-21 by Spacewatch at Kitt Peak
Reference: 20110912/Numbers.arcLast Updated: 2011-09-14
Ephemeris | Orbit Diagram | Orbital Elements | Mission Design | Physical Parameters | Discovery Circumstances ]
ABOUT SSD CREDITS/AWARDS PRIVACY/COPYRIGHT GLOSSARY LINKS
FirstGov
(server date/time)  
NASA Home Page
Site Manager:   Ryan S. Park
Webmaster  Alan B. Chamberlin